Regional Weather Roundup
Issued by NWS Memphis, TN

Home | Current Version | Previous Version | Text Only | Print | Product List | Glossary On
Versions: 1 2 3 4 5 6 7 8 9 10 11 12 13 14 15 16 17 18 19 20 21 22 23 24 25 26 27 28 29 30 31 32 33 34 35 36 37 38 39 40 41 42 43 44 45 46 47 48 49 50
000
ASUS44 KMEG 042310
RWRMEG
MEMPHIS CWA HOURLY WEATHER ROUNDUP
NATIONAL WEATHER SERVICE MEMPHIS TN
500 PM CST SUN DEC 04 2016

...WEST TENNESSEE...

CITY           SKY/WX    TMP DP  RH WIND       PRES   REMARKS
MEMPHIS INTL   CLOUDY    46  44  93 NW6       30.00R
NWS MEMPHIS      N/A     46 N/A N/A MISG        N/A
JACKSON        CLOUDY    46  45  96 NW6       29.99R
BOLIVAR        CLOUDY    46  45  93 NW5       29.99R
LEXINGTON      CLOUDY    46  46 100 W3        29.97R
DYERSBURG      CLOUDY   N/A N/A N/A W5        29.98S
UNION CITY     CLOUDY    43  43 100 W3        29.96S
PARIS          CLOUDY    43  41  93 CALM      29.97S
HUNTINGDON     CLOUDY    45  45 100 CALM      29.97R


...EASTERN ARKANSAS...

CITY           SKY/WX    TMP DP  RH WIND       PRES   REMARKS
JONESBORO      CLOUDY    45  42  89 NW3       30.01R
WEST MEMPHIS   CLOUDY    46  43  89 NW6       30.00R
BATESVILLE     CLOUDY    45  39  81 CALM      30.02S
NEWPORT        CLOUDY    46  42  86 NW9       30.02R
WALNUT RIDGE   CLOUDY    45  39  81 NW5       30.01R
BLYTHEVILLE    CLOUDY    46  43  89 NW10      30.01R
SEARCY         CLOUDY    47  45  93 CALM      30.04R
STUTTGART      CLOUDY    46  39  76 N5        30.03S
PINE BLUFF     CLOUDY    47  44  90 N6        30.03R
MONTICELLO     CLOUDY    48  45  89 CALM      30.02R


...NORTH MISSISSIPPI...

CITY           SKY/WX    TMP DP  RH WIND       PRES   REMARKS
TUPELO         CLOUDY    50  47  89 NW3       29.98R
OXFORD         CLOUDY    46  45  93 NW7       30.01R
BATESVILLE     CLOUDY    47  45  92 NW5       30.01R
OLIVE BRANCH   CLOUDY   N/A N/A N/A CALM      29.98R
TUNICA         CLOUDY    45  43  93 NW7       30.02R
CLARKSDALE     CLOUDY    48  48 100 CALM      30.01F
CORINTH        CLOUDY    48  46  93 CALM      29.97S
GREENWOOD      CLOUDY    49  45  86 N5        30.00R
COLUMBUS       CLOUDY    52  50  93 NW6       29.98R
STARKVILLE     FOG       50  50 100 CALM      30.00R VSB 3/4


...SOUTHEAST MISSOURI...

CITY           SKY/WX    TMP DP  RH WIND       PRES   REMARKS
KENNETT        CLOUDY    45  43  93 W9        30.00R
WEST PLAINS    CLOUDY    44  39  82 NW8       29.99R
POPLAR BLUFF   CLOUDY    44  41  89 NW5       30.00R
CAPE GIRARDEAU CLOUDY    42  39  89 W7        29.98R


...NORTHWEST ALABAMA...

CITY           SKY/WX    TMP DP  RH WIND       PRES   REMARKS
MUSCLE SHOALS  CLOUDY    50  47  89 CALM      29.98S FOG


...MIDDLE TENNESSEE...

CITY           SKY/WX    TMP DP  RH WIND       PRES   REMARKS
NASHVILLE      DRIZZLE   48  46  93 CALM      29.97R FOG
CLARKSVILLE    CLOUDY    46  43  89 W6        29.96S
COLUMBIA       CLOUDY   N/A N/A N/A CALM      29.95R


...WESTERN KENTUCKY...

CITY           SKY/WX    TMP DP  RH WIND       PRES   REMARKS
PADUCAH        CLOUDY    45  41  86 W7        29.96S
FORT CAMPBELL  CLOUDY    45  45 100 W5        29.95S


...CENTRAL ARKANSAS...

CITY           SKY/WX    TMP DP  RH WIND       PRES   REMARKS
LITTLE ROCK    CLOUDY    47  45  93 CALM      30.03R


SKY/WX REPORTED AS FAIR MEANS FEW OR NO CLOUDS BELOW
12 THOUSAND FEET.





USA.gov is the U.S. government's official web portal to all federal, state and local government web resources and services.